Back to catalog

CZ-4C R/B

AliveSSO
NORAD 48080·ROCKET BODY·🇨🇳 China

Launched Mar 30, 2021 from Jiuquan Satellite Launch Center

Loading…

Next Passes (next 24 hours)

TLE

FreshSource: Space-Track

Epoch: Sep 14, 2026, 09:24 UTC

1 48080U 21026B   26257.39215208  .00002306  00000-0  11582-3 0  9994
2 48080  97.7236 309.9613 0039370  89.0211 271.5532 15.17692264300360

Track CZ-4C R/B in real time with AllMySat

Download on the App Store